User: anonymous   Login
Location: Newark
(59.4564°N, 26.6917°E)
Time: 22:59:46
(UTC+00:00)
Language:

Transit 2A Rocket - Orbit

View from above orbital plane
View from above orbital plane
View from above satellite
View from above satellite

Ground track
Ground track

The orbit data is extracted from the following two-line orbital elements,

1    47U 60007C   19320.18846010 -.00000039  00000-0  16340-4 0  9998
2    47  66.6673   7.9053 0220441 100.4189 262.1839 14.42058349104238
Epoch (UTC): 16 November 2019 04:31:22
Eccentricity: 0.0220441
inclination: 66.6673°
perigee height: 594 km
apogee height: 909 km
right ascension of ascending node: 7.9053°
argument of perigee: 100.4189°
revolutions per day: 14.42058349
mean anomaly at epoch: 262.1839°
orbit number at epoch: 10423

The dashed part of the orbit path shows where the satellite is in the earth's shadow,  

DLR